FW5790 Weather Reports


Display with metric or nautical units.
time (UTC)temp
F
wind
direction
speed
MPH
gust
MPH
rain 1hr
in
rain 24hr
in
rain mn
in
humidity
%
barometer
mb
20260906234600 77 193 1.0 4.0 0.00 0.00 0.00 65 1015.4
20260906233101 78 203 1.0 5.0 0.00 0.00 0.00 65 1015.5
20260906231552 79 210 2.0 5.0 0.00 0.00 0.00 64 1015.5
20260906230052 79 207 3.0 7.0 0.00 0.00 0.00 63 1015.6
20260906224559 80 188 1.0 6.0 0.00 0.00 0.00 64 1015.6
20260906223102 80 200 4.0 7.0 0.00 0.00 0.00 62 1015.5
20260906221555 80 199 2.0 5.0 0.00 0.00 0.00 64 1015.6
20260906220051 80 191 2.0 5.0 0.00 0.00 0.00 65 1015.6
20260906214601 80 205 2.0 4.0 0.00 0.00 0.00 66 1015.6
20260906213055 81 205 3.0 7.0 0.00 0.00 0.00 65 1015.5
20260906211552 81 199 1.0 7.0 0.00 0.00 0.00 66 1015.5
20260906210052 81 190 1.0 4.0 0.00 0.00 0.00 67 1015.7
20260906204609 82 201 2.0 7.0 0.00 0.00 0.00 65 1015.5
20260906203057 82 186 2.0 6.0 0.00 0.00 0.00 66 1015.7
20260906201600 82 196 3.0 7.0 0.00 0.00 0.00 67 1015.7
20260906200051 82 210 1.0 5.0 0.00 0.00 0.00 68 1015.8
20260906194549 82 193 2.0 7.0 0.00 0.00 0.00 67 1015.6
20260906193054 82 179 1.0 7.0 0.00 0.00 0.00 70 1015.7
20260906191551 82 188 2.0 5.0 0.00 0.00 0.00 69 1015.8
20260906190106 83 193 3.0 7.0 0.00 0.00 0.00 69 1015.9
20260906184600 83 255 1.0 8.0 0.00 0.00 0.00 69 1015.9
20260906183108 82 196 2.0 7.0 0.00 0.00 0.00 70 1016.1
20260906181553 82 188 2.0 6.0 0.00 0.00 0.00 69 1016.1
20260906180109 83 202 1.0 6.0 0.00 0.00 0.00 71 1016.1
20260906174558 82 205 1.0 5.0 0.00 0.00 0.00 71 1016.2
20260906173102 80 227 2.0 5.0 0.00 0.00 0.00 76 1016.3
20260906171552 80 195 2.0 6.0 0.00 0.00 0.00 74 1016.4
20260906170115 79 268 3.0 8.0 0.00 0.00 0.00 80 1016.4
20260906164603 77 192 1.0 6.0 0.00 0.00 0.00 82 1016.4
20260906163057 77 236 1.0 6.0 0.00 0.00 0.00 84 1016.9
20260906161551 76 207 2.0 5.0 0.00 0.00 0.00 84 1017.0
20260906160052 75 203 2.0 4.0 0.00 0.00 0.00 86 1017.1
20260906154559 73 202 1.0 3.0 0.00 0.00 0.00 88 1017.1
20260906153052 72 209 2.0 5.0 0.00 0.00 0.00 89 1017.0
20260906151607 72 198 1.0 5.0 0.00 0.00 0.00 89 1017.1
20260906150106 72 181 1.0 4.0 0.00 0.00 0.00 90 1016.9
20260906144555 72 194 1.0 4.0 0.00 0.00 0.00 90 1016.7
20260906143130 72 207 0.0 4.0 0.00 0.00 0.00 90 1016.8
20260906141552 73 212 3.0 6.0 0.00 0.00 0.00 89 1016.5
20260906140051 73 203 1.0 4.0 0.00 0.00 0.00 90 1016.4
20260906134608 73 200 1.0 5.0 0.00 0.00 0.00 90 1016.3
20260906133058 73 198 0.0 4.0 0.00 0.00 0.00 90 1016.2
20260906131552 73 203 1.0 4.0 0.00 0.00 0.00 90 1016.2
20260906130103 73 201 0.0 3.0 0.00 0.00 0.00 90 1016.2
20260906124559 73 194 1.0 5.0 0.00 0.00 0.00 90 1016.1
20260906123124 73 200 2.0 5.0 0.00 0.00 0.00 90 1015.9
20260906121551 73 200 1.0 4.0 0.00 0.00 0.00 90 1015.5
20260906120106 73 211 1.0 3.0 0.00 0.00 0.00 90 1015.4
20260906114606 73 210 2.0 6.0 0.00 0.02 0.00 90 1015.0
20260906113053 73 225 3.0 6.0 0.00 0.02 0.00 91 1014.9
20260906111551 73 209 1.0 5.0 0.00 0.02 0.00 91 1014.9
20260906104557 72 200 1.0 5.0 0.00 0.02 0.00 91 1014.7
20260906103056 72 187 2.0 6.0 0.00 0.02 0.00 91 1014.6
20260906101550 72 207 2.0 5.0 0.00 0.02 0.00 91 1014.5
20260906100058 72 196 1.0 5.0 0.00 0.02 0.00 91 1014.2
20260906094604 72 200 2.0 6.0 0.00 0.02 0.00 91 1014.1
20260906093055 72 197 0.0 2.0 0.00 0.02 0.00 91 1014.0
20260906091606 72 193 0.0 1.0 0.00 0.02 0.00 90 1013.9
20260906084606 72 0 0.0 0.0 0.00 0.02 0.00 90 1013.9
20260906083052 72 0 0.0 1.0 0.00 0.02 0.00 90 1013.8
20260906081553 72 0 0.0 0.0 0.00 0.02 0.00 90 1013.7
20260906074556 73 0 0.0 0.0 0.00 0.02 0.00 90 1013.9
20260906073054 73 0 0.0 0.0 0.00 0.02 0.00 89 1013.8
20260906071551 74 0 0.0 0.0 0.00 0.02 0.00 89 1013.7
20260906070050 74 0 0.0 2.0 0.00 0.02 0.00 89 1013.8
20260906064601 74 198 0.0 2.0 0.00 0.02 0.00 89 1013.8
20260906063059 74 0 0.0 0.0 0.00 0.02 0.00 90 1013.9
20260906061603 74 0 0.0 0.0 0.00 0.02 0.00 89 1014.1
20260906054554 75 0 0.0 1.0 0.00 0.02 0.00 89 1014.1
20260906053110 75 198 0.0 1.0 0.00 0.02 0.00 89 1014.1
20260906051604 75 0 0.0 0.0 0.00 0.02 0.00 88 1014.1
20260906050101 76 0 0.0 0.0 0.00 0.02 0.00 88 1014.0
20260906044602 76 0 0.0 0.0 0.00 0.02 0.00 87 1014.0
20260906043106 77 0 0.0 0.0 0.00 0.02 0.00 85 1013.7
20260906041603 78 0 0.0 0.0 0.00 0.02 0.00 85 1013.5
20260906040117 78 0 0.0 1.0 0.00 0.02 0.00 84 1013.6
20260906034555 79 203 0.0 2.0 0.00 0.02 0.02 84 1013.5
20260906033107 79 191 0.0 0.0 0.00 0.02 0.02 84 1013.4
20260906031559 79 0 0.0 0.0 0.00 0.02 0.02 85 1013.4
20260906030055 77 0 0.0 1.0 0.00 0.02 0.02 86 1013.4
20260906024556 78 0 0.0 0.0 0.00 0.02 0.02 86 1013.1
20260906023054 78 0 0.0 0.0 0.00 0.02 0.02 85 1013.2
20260906021607 79 0 0.0 0.0 0.00 0.02 0.02 84 1013.2
20260906020105 79 0 0.0 0.0 0.00 0.02 0.02 83 1013.0
20260906014602 80 0 0.0 0.0 0.00 0.02 0.02 83 1013.0
20260906013107 80 0 0.0 0.0 0.00 0.02 0.02 85 1012.9
20260906011605 80 0 0.0 0.0 0.00 0.02 0.02 84 1012.6
20260906010058 81 0 0.0 0.0 0.00 0.02 0.02 84 1012.3
20260906004609 81 0 0.0 0.0 0.00 0.02 0.02 85 1012.5
20260906003102 82 0 0.0 0.0 0.00 0.02 0.02 85 1012.3
20260906001553 83 0 0.0 0.0 0.00 0.02 0.02 82 1012.3
20260906000107 84 0 0.0 0.0 0.00 0.02 0.02 79 1012.5